Regional Weather Roundup
Issued by NWS

Home | Current Version | Previous Version | Graphics & Text | Print | Product List | Glossary On
Versions: 1 2 3 4 5 6 7 8 9 10 11 12 13 14 15 16 17 18 19 20 21 22 23 24 25 26 27 28 29 30 31 32 33 34 35 36 37 38 39 40 41 42 43 44 45 46 47 48 49 50
000
ASUS44 KMEG 210500
RWRTN
TENNESSEE HOURLY STATE WEATHER ROUNDUP
NATIONAL WEATHER SERVICE MEMPHIS TN
1100 PM CST MON FEB 20 2017

TNZ002-004-019-021-049-052-054-088>092-210600-
WEST TENNESSEE

CITY           SKY/WX    TMP DP  RH WIND       PRES   REMARKS
MEMPHIS INTL   CLOUDY    70  50  49 SE13      29.89F
NWS MEMPHIS      N/A     67 N/A N/A MISG        N/A
JACKSON        CLOUDY    63  50  62 VRB3      29.95F
UNION CITY     CLEAR     61  46  59 CALM      29.94S
PARIS          CLEAR     61  46  59 SE9       29.97F
$$

TNZ008-025-027-028-033-062-065-066-210600-
NORTH MIDDLE TENNESSEE

CITY           SKY/WX    TMP DP  RH WIND       PRES   REMARKS
NASHVILLE      MOCLDY    61  44  53 SE7       30.03F
CLARKSVILLE    MOCLDY    60  45  57 S3        30.00F
SMYRNA         CLOUDY    53  46  77 CALM      30.05S
CROSSVILLE     CLOUDY    51  44  77 CALM      30.11F
$$

TNZ061-075-076-078-094-096-097-210600-
SOUTH MIDDLE TENNESSEE

CITY           SKY/WX    TMP DP  RH WIND       PRES   REMARKS
TULLAHOMA      CLEAR     59  45  58 S3        30.07S
MCMINNVILLE    CLEAR     61  46  59 S3        30.07S
COLUMBIA       CLEAR     61  52  72 CALM      30.00F
SHELBYVILLE    CLEAR     63  48  59 SE7       30.05F
$$

TNZ017-018-042-046-047-210600-
NORTHEAST TENNESSEE

CITY           SKY/WX    TMP DP  RH WIND       PRES   REMARKS
TRI CITIES     MOCLDY    45  37  73 CALM      30.14F
$$

TNZ012-013-036-069-073-074-210600-
CENTRAL EAST TENNESSEE

CITY           SKY/WX    TMP DP  RH WIND       PRES   REMARKS
KNOXVILLE      CLOUDY    56  44  64 CALM      30.10F
OAK RIDGE      MOCLDY    51  45  79 CALM      30.12F
GATLINBURG     CLEAR     46  41  81 CALM      30.11F
$$

TNZ083-085-099-210600-
SOUTHEAST TENNESSEE

CITY           SKY/WX    TMP DP  RH WIND       PRES   REMARKS
CHATTANOOGA    MOCLDY    53  49  86 CALM      30.10F
$$

SKY/WX REPORTED AS FAIR MEANS FEW OR NO CLOUDS BELOW
12 THOUSAND FEET.





USA.gov is the U.S. government's official web portal to all federal, state and local government web resources and services.